Location: Burtsch�tz
(51.0528°N, 12.1764°E)
Time: 01:48:55
(UTC+00:00)

CZ-4C R/B - Pass Details

Date: 29 October 2020
Orbit: 409 x 489 km, 97.7° (Epoch: 23 November)

Event Time Altitude Azimuth Distance (km) Brightness Sun altitude
Rises 16:18:09 0° 12° (NNE) 2,398 6.3 -5.0°
Reaches altitude 10° 16:20:09 10° 10° (N) 1,538 5.4 -5.3°
Maximum altitude 16:23:25 73° 286° (WNW) 463 3.1 -5.8°
Drops below altitude 10° 16:26:46 10° 201° (SSW) 1,567 6.2 -6.3°
Sets 16:28:48 0° 200° (SSW) 2,448 7.1 -6.6°
